Weather History for EIDW - November, 2011

Change the Weather History Date:

Sunday, November 6, 2011

  Actual Average Record
Temperature  
Mean Temperature 43 °F -  
Max Temperature 54 °F 49 °F 59 °F (2014)
Min Temperature 32 °F 40 °F 32 °F (2011)
Degree Days  
Heating Degree Days 22    
Moisture  
Dew Point 36 °F    
Average Humidity 88    
Maximum Humidity 100    
Minimum Humidity 54    
Precipitation  
Precipitation 0.00 in 0.09 in - ()
Sea Level Pressure  
Sea Level Pressure 30.31 in    
Wind  
Wind Speed 6 mph ()    
Max Wind Speed 9 mph    
Max Gust Speed -    
Visibility 7.5 miles    
Events      
Averages and records for this station are not official NWS values.
T = Trace of Precipitation, MM = Missing Value Source: Averaged Metar Reports

Daily Weather History Graph

Daily Weather History Graph

Search for Another Location

Airport or City:

Trip Planner

Search our weather history database for the weather conditions in past years. The results will help you decide how hot, cold, wet, or windy it might be!

Date:

Astronomy

Nov. 06, 2011 Rise Set
Actual Time 7:32 AM GMT 4:44 PM GMT
Civil Twilight 6:55 AM GMT 5:21 PM GMT
Nautical Twilight 6:13 AM GMT 6:03 PM GMT
Astronomical Twilight 5:32 AM GMT 6:43 PM GMT
Moon 2:47 PM GMT (11/6) 2:56 AM GMT (11/6)
Length of Visible Light 10h 26m
Length of Day
9h 11m
Waxing Gibbous, 84% of the Moon is Illuminated
Nov 6
Waxing Gibbous
Nov 10
Full
Nov 18
Last Quarter
Nov 25
New
Dec 2
First Quarter

Hourly Weather History & Observations

Time (GMT) Temp. Windchill Dew Point Humidity Pressure Visibility Wind Dir Wind Speed Gust Speed Precip Events Conditions
12:00 AM 36 °F - 36 °F 100% 30.21 in 16 mi West 8.9 mph - -   Clear
12:00 AM 35.6 °F 29.2 °F 35.6 °F 100% 30.18 in - West 8.1 mph - N/A   Clear
12:30 AM 35.6 °F 29.2 °F 35.6 °F 100% 30.21 in - West 8.1 mph - N/A   Clear
1:00 AM 35.6 °F 29.2 °F 33.8 °F 93% 30.21 in - WSW 8.1 mph - N/A   Clear
1:30 AM 37.4 °F 31.4 °F 37.4 °F 100% 30.21 in - West 8.1 mph - N/A   Clear
2:00 AM 37.4 °F 32.1 °F 37.4 °F 100% 30.21 in - West 6.9 mph - N/A   Clear
2:30 AM 37.4 °F 32.8 °F 35.6 °F 93% 30.24 in - West 5.8 mph - N/A   Clear
3:00 AM 37.4 °F - 37.4 °F 100% 30.24 in - Variable 1.2 mph - N/A   Clear
3:30 AM 35.6 °F 31.7 °F 35.6 °F 100% 30.24 in - West 4.6 mph - N/A   Clear
4:00 AM 33.8 °F 27.0 °F 33.8 °F 100% 30.24 in - West 8.1 mph - N/A   Clear
4:30 AM 33.8 °F 26.4 °F 33.8 °F 100% 30.24 in - West 9.2 mph - N/A   Clear
5:00 AM 33.8 °F 27.7 °F 33.8 °F 100% 30.24 in - West 6.9 mph - N/A   Clear
5:30 AM 35.6 °F 30.7 °F 35.6 °F 100% 30.27 in - West 5.8 mph - N/A   Clear
6:00 AM 32 °F - 32 °F 100% 30.30 in 16 mi West 6.7 mph - -   Clear
6:00 AM 32.0 °F 25.6 °F 32.0 °F 100% 30.27 in - West 6.9 mph - N/A   Clear
6:30 AM 32.0 °F 25.6 °F 32.0 °F 100% 30.27 in - West 6.9 mph - N/A   Clear
7:00 AM 33.8 °F 26.4 °F 33.8 °F 100% 30.30 in - West 9.2 mph - N/A   Clear
7:30 AM 33.8 °F 27.0 °F 33.8 °F 100% 30.30 in - West 8.1 mph - N/A   Clear
8:00 AM 33.8 °F 27.7 °F 33.8 °F 100% 30.30 in - West 6.9 mph - N/A   Clear
8:30 AM 35.6 °F 29.9 °F 35.6 °F 100% 30.30 in - West 6.9 mph - N/A   Clear
9:00 AM 37.4 °F 34.9 °F 37.4 °F 100% 30.30 in - Variable 3.5 mph - N/A   Clear
9:30 AM 39.2 °F 34.2 °F 37.4 °F 93% 30.33 in - West 6.9 mph - N/A   Clear
10:00 AM 42.8 °F 40.1 °F 41.0 °F 93% 30.33 in - West 4.6 mph - N/A   Clear
10:30 AM 44.6 °F 40.7 °F 41.0 °F 87% 30.33 in - West 6.9 mph - N/A   Clear
11:00 AM 48.2 °F - 41.0 °F 76% 30.33 in - WNW 4.6 mph - N/A   Clear
11:30 AM 48.2 °F - 39.2 °F 71% 30.33 in - WSW 6.9 mph - N/A   Clear
12:00 PM 50 °F - 39 °F 55% 30.35 in 47 mi West 6.7 mph - -   Scattered Clouds
12:00 PM 50.0 °F - 39.2 °F 66% 30.33 in - West 5.8 mph - N/A   Clear
12:30 PM 51.8 °F - 39.2 °F 62% 30.33 in - WSW 4.6 mph - N/A   Clear
1:00 PM 51.8 °F - 37.4 °F 58% 30.33 in - SW 5.8 mph - N/A   Clear
1:30 PM 53.6 °F - 37.4 °F 54% 30.33 in - Variable 3.5 mph - N/A   Clear
2:00 PM 53.6 °F - 37.4 °F 54% 30.33 in - SSW 4.6 mph - N/A   Clear
2:30 PM 53.6 °F - 37.4 °F 54% 30.33 in - South 4.6 mph - N/A   Clear
3:00 PM 53.6 °F - 37.4 °F 54% 30.33 in - SSE 5.8 mph - N/A   Clear
3:30 PM 51.8 °F - 39.2 °F 62% 30.33 in - SSE 5.8 mph - N/A   Clear
4:00 PM 50.0 °F - 37.4 °F 62% 30.33 in - SSE 5.8 mph - N/A   Clear
4:30 PM 48.2 °F - 37.4 °F 66% 30.33 in - SSE 4.6 mph - N/A   Clear
5:00 PM 42.8 °F 40.1 °F 35.6 °F 76% 30.33 in - SSE 4.6 mph - N/A   Clear
5:30 PM 39.2 °F 37.0 °F 35.6 °F 87% 30.33 in 6.2 mi Variable 3.5 mph - N/A   Scattered Clouds
6:00 PM 37 °F - 35 °F 90% 30.37 in 25 mi SSE 4.5 mph - -   Scattered Clouds
6:00 PM 37.4 °F 33.8 °F 35.6 °F 93% 30.33 in 6.2 mi SSE 4.6 mph - N/A   Scattered Clouds
6:30 PM 35.6 °F 31.7 °F 33.8 °F 93% 30.36 in 6.2 mi South 4.6 mph - N/A   Scattered Clouds
7:00 PM 35.6 °F 31.7 °F 35.6 °F 100% 30.36 in 6.2 mi South 4.6 mph - N/A   Scattered Clouds
7:30 PM 35.6 °F - 35.6 °F 100% 30.36 in 6.2 mi Variable 1.2 mph - N/A   Scattered Clouds
8:00 PM 37.4 °F - 35.6 °F 93% 30.36 in 6.2 mi SW 1.2 mph - N/A   Scattered Clouds
8:30 PM 33.8 °F - 33.8 °F 100% 30.36 in 6.2 mi Calm Calm - N/A   Scattered Clouds
9:00 PM 35.6 °F - 33.8 °F 93% 30.36 in 6.2 mi Variable 1.2 mph - N/A   Scattered Clouds
9:30 PM 33.8 °F - 32.0 °F 93% 30.36 in 6.2 mi Variable 2.3 mph - N/A   Scattered Clouds
10:00 PM 33.8 °F - 33.8 °F 100% 30.39 in 6.2 mi Calm Calm - N/A   Scattered Clouds
10:30 PM 33.8 °F - 33.8 °F 100% 30.36 in 6.2 mi Calm Calm - N/A   Scattered Clouds
11:00 PM 32.0 °F 27.5 °F 32.0 °F 100% 30.36 in 6.2 mi SSE 4.6 mph - N/A   Scattered Clouds
11:30 PM 32.0 °F - 30.2 °F 93% 30.36 in 6.2 mi Variable 2.3 mph - N/A   Scattered Clouds